Tracking 30685 objects as of 17-Jun-2025
HD Live streaming from Space Station
objects crossing your sky now

STARLINK-34328

Track STARLINK-34328 now!
10-day predictions
STARLINK-34328 is classified as:


NORAD ID: 64220
Int'l Code: 2025-117T
Perigee: 352.5 km
Apogee: 354.0 km
Inclination: 53.2 °
Period: 91.5 minutes
Semi major axis: 6724 km
RCS: Unknown
Launch date: June 5, 2025
Source: United States (US)
Launch site: AIR FORCE WESTERN TEST RANGE (AFWTR)
Your satellite tracking list
Your tracking list is empty




NASA's NSSDC Master Catalog

Two Line Element Set (TLE):
1 64220U 25117T   25168.16667824 -.01197384  00000-0 -91015-2 0  9995
2 64220  53.1649 199.1010 0001078  79.3932  16.6280 15.74486845  2764
Source of the keplerian elements: AFSPC